Copper Harbor, MI

11:26 AM EDT on September 28, 2016 (GMT -0400)
Copper Harbor

Weather History for KP59 - March, 2014

Change the Weather History Date:

Friday, March 7, 2014

  Actual Average Record
Temperature  
Mean Temperature 24 °F -  
Max Temperature 30 °F 25 °F 50 °F (2016)
Min Temperature 19 °F 13 °F 0 °F (1997)
Degree Days  
Heating Degree Days 40    
Moisture  
Dew Point 19 °F    
Average Humidity 79    
Maximum Humidity 88    
Minimum Humidity 61    
Precipitation  
Precipitation 0.08 in - - ()
Sea Level Pressure  
Sea Level Pressure 29.91 in    
Wind  
Wind Speed 10 mph (NNW)    
Max Wind Speed 24 mph    
Max Gust Speed 33 mph    
Averages and records for this station are not official NWS values.
T = Trace of Precipitation, MM = Missing Value Source: NWS Daily Summary

Daily Weather History Graph

Daily Weather History Graph

Search for Another Location

Airport or City:

Trip Planner

Search our weather history database for the weather conditions in past years. The results will help you decide how hot, cold, wet, or windy it might be!

Date:

Astronomy

Mar. 07, 2014 Rise Set
Actual Time 7:20 AM EST 6:45 PM EST
Civil Twilight 6:49 AM EST 7:16 PM EST
Nautical Twilight 6:14 AM EST 7:51 PM EST
Astronomical Twilight 5:38 AM EST 8:27 PM EST
Moon 10:47 AM EST (3/7) 1:14 AM EST (3/7)
Length of Visible Light 12h 26m
Length of Day
11h 25m
Waxing Crescent, 42% of the Moon is Illuminated
Mar 7
Waxing Crescent
Mar 8
First Quarter
Mar 16
Full
Mar 23
Last Quarter
Mar 30
New

Hourly Weather History & Observations

Time (EST) Temp. Windchill Dew Point Humidity Pressure Visibility Wind Dir Wind Speed Gust Speed Precip Events Conditions
12:51 AM 28.0 °F 20.0 °F 17.1 °F 63% 29.87 in - WSW 8.1 mph - N/A   Unknown
1:51 AM 27.0 °F 18.7 °F 16.0 °F 63% 29.86 in - WSW 8.1 mph 17.3 mph N/A   Unknown
2:51 AM 27.0 °F 18.0 °F 15.1 °F 61% 29.86 in - WSW 9.2 mph - N/A   Unknown
3:51 AM 26.1 °F 19.4 °F 16.0 °F 66% 29.85 in - Variable 5.8 mph - N/A   Unknown
4:51 AM 24.1 °F 16.0 °F 19.9 °F 84% 29.84 in - WSW 6.9 mph - 0.01 in   Unknown
5:51 AM 24.1 °F 15.2 °F 19.9 °F 84% 29.83 in - WSW 8.1 mph - 0.03 in   Unknown
6:51 AM 24.1 °F 18.2 °F 19.9 °F 84% 29.83 in - Variable 4.6 mph - 0.02 in   Unknown
7:51 AM 25.0 °F 17.1 °F 21.0 °F 85% 29.81 in - WSW 6.9 mph - 0.01 in   Unknown
8:51 AM 26.1 °F 19.4 °F 21.0 °F 81% 29.81 in - WSW 5.8 mph - N/A   Unknown
9:51 AM 27.0 °F 19.5 °F 21.0 °F 78% 29.81 in - WSW 6.9 mph - N/A   Unknown
10:51 AM 27.0 °F 21.6 °F 21.9 °F 81% 29.82 in - West 4.6 mph - 0.01 in   Unknown
11:51 AM 28.9 °F 22.8 °F 23.0 °F 78% 29.82 in - NNW 5.8 mph - N/A   Unknown
12:51 PM 30.0 °F 24.1 °F 25.0 °F 82% 29.83 in - NNW 5.8 mph - N/A   Unknown
1:51 PM 30.0 °F 23.2 °F 25.0 °F 82% 29.83 in - NNW 6.9 mph - N/A   Unknown
2:51 PM 28.0 °F 16.1 °F 24.1 °F 85% 29.86 in - NNE 16.1 mph - N/A   Unknown
3:51 PM 26.1 °F 12.0 °F 23.0 °F 88% 29.88 in - NNE 20.7 mph 26.5 mph N/A   Unknown
4:51 PM 25.0 °F 10.6 °F 21.0 °F 85% 29.92 in - NNE 20.7 mph 28.8 mph N/A   Unknown
5:51 PM 25.0 °F 9.9 °F 21.0 °F 85% 29.96 in - NNE 23.0 mph 31.1 mph N/A   Unknown
6:51 PM 24.1 °F 8.3 °F 19.9 °F 84% 30.01 in - NNE 24.2 mph 33.4 mph N/A   Unknown
7:51 PM 24.1 °F 9.4 °F 19.0 °F 81% 30.05 in - NNE 20.7 mph 28.8 mph N/A   Unknown
8:51 PM 21.9 °F 6.5 °F 17.1 °F 82% 30.10 in - NNE 20.7 mph 29.9 mph N/A   Unknown
9:51 PM 19.9 °F 4.8 °F 15.1 °F 81% 30.13 in - NNE 18.4 mph - N/A   Unknown
10:51 PM 19.0 °F 3.2 °F 12.9 °F 77% 30.17 in - NNE 19.6 mph - N/A   Unknown
11:51 PM 19.0 °F 6.1 °F 12.9 °F 77% 30.18 in - NE 12.7 mph 21.9 mph N/A   Unknown